Precipitable_Water
0.64 0.61 0.58 0.56 0.49 0.44 0.42 0.43 0.45 0.46 0.44 0.44 0.45 0.46 0.47 0.48 0.51 0.50 0.48 0.47 0.42 0.40 0.39 0.37 0.35 0.34 0.33 0.32 0.32 0.32 0.32 0.31 0.27 0.29 0.31 0.32 0.32 0.33 0.34 0.36 0.36 0.36 0.37
0.61 0.56 0.51 0.47 0.46 0.43 0.44 0.47 0.48 0.47 0.47 0.46 0.48 0.48 0.48 0.48 0.47 0.44 0.43 0.41 0.37 0.34 0.34 0.34 0.32 0.29 0.27 0.28 0.28 0.29 0.29 0.30 0.28 0.25 0.28 0.28 0.29 0.30 0.32 0.32 0.32 0.32 0.33
0.53 0.49 0.46 0.46 0.45 0.43 0.43 0.45 0.48 0.47 0.46 0.47 0.46 0.45 0.46 0.46 0.44 0.41 0.37 0.35 0.35 0.35 0.34 0.31 0.29 0.27 0.26 0.27 0.27 0.27 0.27 0.26 0.26 0.25 0.24 0.26 0.26 0.27 0.26 0.28 0.29 0.30 0.31
0.49 0.44 0.40 0.41 0.43 0.42 0.43 0.42 0.42 0.42 0.41 0.41 0.39 0.39 0.38 0.34 0.33 0.33 0.32 0.33 0.32 0.30 0.29 0.28 0.27 0.26 0.25 0.25 0.24 0.23 0.23 0.22 0.21 0.21 0.20 0.20 0.22 0.24 0.24 0.24 0.24 0.27 0.27
0.44 0.39 0.36 0.36 0.36 0.37 0.35 0.34 0.32 0.30 0.27 0.27 0.25 0.25 0.24 0.24 0.24 0.25 0.24 0.26 0.27 0.27 0.27 0.27 0.26 0.26 0.24 0.24 0.22 0.20 0.20 0.19 0.20 0.21 0.21 0.21 0.22 0.23 0.23 0.25 0.24 0.26 0.27
0.37 0.33 0.34 0.34 0.34 0.32 0.31 0.28 0.26 0.25 0.24 0.23 0.22 0.21 0.20 0.21 0.23 0.22 0.22 0.22 0.22 0.22 0.23 0.23 0.24 0.23 0.22 0.22 0.21 0.22 0.22 0.20 0.20 0.20 0.21 0.20 0.21 0.24 0.26 0.26 0.26 0.25 0.22
0.33 0.32 0.34 0.35 0.31 0.29 0.27 0.24 0.23 0.22 0.22 0.20 0.19 0.21 0.21 0.22 0.22 0.21 0.21 0.20 0.20 0.21 0.22 0.22 0.22 0.21 0.21 0.22 0.23 0.24 0.24 0.24 0.25 0.24 0.23 0.24 0.25 0.28 0.29 0.28 0.28 0.27 0.25
0.32 0.32 0.35 0.33 0.29 0.27 0.25 0.24 0.23 0.21 0.19 0.19 0.20 0.21 0.22 0.23 0.22 0.23 0.22 0.22 0.23 0.23 0.23 0.23 0.21 0.21 0.22 0.23 0.23 0.23 0.24 0.26 0.27 0.29 0.29 0.29 0.30 0.30 0.31 0.30 0.30 0.30 0.31
0.31 0.32 0.34 0.31 0.29 0.25 0.24 0.23 0.21 0.20 0.19 0.20 0.22 0.23 0.23 0.23 0.24 0.23 0.22 0.21 0.22 0.22 0.22 0.22 0.22 0.23 0.24 0.25 0.25 0.25 0.25 0.27 0.31 0.32 0.31 0.31 0.32 0.34 0.34 0.33 0.31 0.29 0.27
0.29 0.32 0.30 0.30 0.28 0.26 0.22 0.20 0.21 0.21 0.21 0.24 0.25 0.25 0.24 0.23 0.25 0.23 0.22 0.21 0.20 0.21 0.22 0.23 0.24 0.24 0.25 0.26 0.26 0.26 0.25 0.26 0.29 0.31 0.32 0.35 0.36 0.34 0.34 0.34 0.33 0.29 0.28
0.31 0.32 0.32 0.31 0.28 0.23 0.21 0.21 0.22 0.22 0.24 0.25 0.25 0.25 0.25 0.25 0.23 0.23 0.22 0.21 0.22 0.21 0.21 0.22 0.24 0.27 0.28 0.28 0.28 0.27 0.27 0.30 0.28 0.28 0.29 0.30 0.31 0.33 0.35 0.37 0.36 0.34 0.30
0.34 0.32 0.32 0.30 0.25 0.22 0.22 0.22 0.23 0.23 0.24 0.24 0.24 0.24 0.24 0.24 0.23 0.22 0.22 0.23 0.24 0.23 0.22 0.24 0.28 0.27 0.28 0.27 0.27 0.29 0.28 0.29 0.28 0.28 0.28 0.28 0.29 0.31 0.33 0.35 0.36 0.36 0.36
0.33 0.32 0.32 0.28 0.24 0.23 0.23 0.23 0.23 0.24 0.24 0.23 0.22 0.22 0.21 0.23 0.23 0.24 0.25 0.25 0.24 0.23 0.26 0.28 0.27 0.27 0.28 0.28 0.29 0.29 0.29 0.29 0.28 0.28 0.28 0.29 0.32 0.34 0.36 0.36 0.37 0.36 0.36
0.33 0.31 0.30 0.24 0.23 0.23 0.24 0.25 0.23 0.23 0.23 0.22 0.21 0.20 0.21 0.22 0.21 0.23 0.24 0.24 0.25 0.27 0.27 0.29 0.28 0.27 0.28 0.29 0.29 0.29 0.29 0.28 0.27 0.27 0.28 0.30 0.33 0.33 0.34 0.35 0.33 0.34 0.33
0.30 0.30 0.25 0.23 0.23 0.23 0.24 0.23 0.23 0.25 0.23 0.21 0.20 0.21 0.21 0.19 0.20 0.23 0.24 0.24 0.25 0.26 0.26 0.26 0.25 0.25 0.26 0.27 0.26 0.26 0.27 0.27 0.26 0.27 0.28 0.29 0.30 0.30 0.31 0.32 0.31 0.31 0.29
0.29 0.24 0.22 0.23 0.24 0.25 0.23 0.23 0.26 0.25 0.23 0.21 0.22 0.23 0.21 0.20 0.22 0.24 0.24 0.25 0.25 0.26 0.25 0.23 0.23 0.24 0.25 0.25 0.25 0.25 0.26 0.25 0.26 0.27 0.28 0.28 0.28 0.28 0.28 0.29 0.29 0.28 0.27
0.25 0.22 0.23 0.23 0.24 0.23 0.23 0.23 0.22 0.24 0.24 0.23 0.24 0.21 0.19 0.20 0.23 0.24 0.24 0.25 0.25 0.25 0.23 0.23 0.23 0.24 0.24 0.25 0.25 0.25 0.25 0.26 0.27 0.26 0.27 0.27 0.28 0.28 0.28 0.28 0.28 0.28 0.27
0.22 0.22 0.23 0.24 0.24 0.24 0.24 0.24 0.23 0.21 0.19 0.21 0.24 0.20 0.21 0.22 0.23 0.23 0.24 0.24 0.23 0.23 0.23 0.23 0.23 0.24 0.23 0.23 0.25 0.25 0.26 0.27 0.26 0.26 0.26 0.27 0.27 0.26 0.26 0.26 0.27 0.27 0.28
0.21 0.24 0.24 0.25 0.25 0.24 0.25 0.24 0.23 0.22 0.20 0.20 0.20 0.20 0.23 0.23 0.23 0.23 0.23 0.23 0.22 0.22 0.22 0.23 0.23 0.20 0.18 0.18 0.19 0.22 0.24 0.25 0.26 0.26 0.25 0.25 0.26 0.26 0.25 0.25 0.25 0.26 0.27
0.22 0.23 0.23 0.24 0.24 0.24 0.24 0.23 0.22 0.21 0.19 0.20 0.19 0.18 0.21 0.22 0.21 0.21 0.22 0.22 0.21 0.20 0.21 0.20 0.19 0.18 0.17 0.17 0.16 0.16 0.16 0.18 0.20 0.23 0.25 0.25 0.25 0.26 0.25 0.25 0.24 0.23 0.23
0.23 0.23 0.23 0.24 0.23 0.23 0.24 0.23 0.23 0.21 0.20 0.19 0.19 0.19 0.20 0.21 0.21 0.21 0.21 0.20 0.19 0.18 0.18 0.17 0.17 0.17 0.17 0.17 0.17 0.16 0.16 0.16 0.17 0.17 0.20 0.23 0.25 0.24 0.25 0.25 0.25 0.24 0.24
0.23 0.24 0.24 0.23 0.23 0.23 0.23 0.24 0.23 0.22 0.20 0.19 0.19 0.18 0.20 0.21 0.21 0.21 0.21 0.20 0.19 0.18 0.17 0.17 0.16 0.17 0.17 0.16 0.16 0.15 0.15 0.15 0.15 0.16 0.17 0.19 0.21 0.23 0.24 0.24 0.24 0.25 0.24
0.23 0.23 0.24 0.23 0.23 0.23 0.24 0.24 0.24 0.23 0.21 0.20 0.20 0.18 0.18 0.20 0.21 0.21 0.21 0.21 0.20 0.18 0.17 0.17 0.16 0.16 0.16 0.17 0.16 0.16 0.15 0.14 0.15 0.15 0.15 0.16 0.17 0.18 0.19 0.20 0.20 0.20 0.21
0.23 0.23 0.23 0.23 0.23 0.23 0.23 0.24 0.24 0.23 0.22 0.21 0.20 0.19 0.17 0.17 0.19 0.21 0.22 0.22 0.22 0.20 0.19 0.17 0.16 0.16 0.16 0.16 0.15 0.15 0.14 0.14 0.14 0.14 0.15 0.14 0.14 0.15 0.16 0.16 0.16 0.16 0.17
0.23 0.23 0.23 0.23 0.23 0.23 0.24 0.24 0.24 0.23 0.23 0.22 0.21 0.20 0.18 0.17 0.17 0.18 0.20 0.22 0.22 0.21 0.19 0.18 0.17 0.16 0.16 0.15 0.15 0.14 0.14 0.13 0.13 0.12 0.15 0.14 0.13 0.13 0.14 0.14 0.15 0.15 0.15
0.23 0.23 0.23 0.23 0.23 0.24 0.23 0.23 0.23 0.23 0.22 0.22 0.21 0.21 0.20 0.18 0.17 0.17 0.18 0.18 0.19 0.19 0.18 0.18 0.18 0.17 0.16 0.16 0.15 0.15 0.14 0.14 0.13 0.13 0.14 0.14 0.13 0.12 0.13 0.13 0.13 0.14 0.13
Wind_Speed
43 45 48 50 50 51 50 50 49 49 48 47 46 46 45 44 44 40 36 33 31 30 30 30 31 32 32 32 33 35 37 39 41 41 42 42 43 44 45 47 48 48 49
45 47 49 49 50 50 50 49 48 48 47 46 45 45 44 40 36 34 32 31 31 32 32 32 33 33 33 33 33 34 35 37 39 41 41 42 44 44 44 45 45 47 48
46 48 50 50 51 50 49 49 48 47 46 45 43 41 37 36 35 33 32 32 33 34 34 34 33 33 33 33 33 34 34 35 36 38 38 39 40 40 41 43 44 46 47
48 50 50 50 49 49 48 47 47 46 44 43 41 39 37 36 35 35 34 35 35 35 34 34 33 32 32 32 32 32 32 33 34 35 36 36 37 37 38 39 40 42 43
49 50 49 48 47 48 48 47 46 44 42 39 37 36 35 34 33 33 34 33 33 33 33 32 32 32 32 33 33 33 33 33 33 34 34 34 35 36 37 38 39 40 42
49 48 47 47 48 47 46 45 44 40 37 35 35 35 35 35 34 35 35 35 35 35 35 34 34 34 33 33 33 34 34 34 34 34 34 34 35 35 35 35 36 37 38
47 46 47 47 47 46 44 41 38 36 35 36 36 36 35 35 35 36 36 36 35 35 34 34 33 32 32 32 32 32 32 33 33 33 34 34 34 34 34 34 34 34 35
47 47 46 46 44 42 39 36 34 35 35 35 35 35 36 36 36 36 36 36 35 34 34 33 33 32 31 30 29 29 29 29 29 30 32 32 31 31 31 31 32 33 33
47 46 45 43 41 37 34 33 34 35 35 35 35 36 36 36 37 37 36 35 33 33 32 31 30 30 28 27 26 26 26 27 28 28 29 30 31 31 31 30 30 31 32
45 43 41 38 36 33 32 33 34 35 35 35 36 37 37 36 35 34 32 30 29 28 28 27 27 26 25 24 23 23 24 24 25 26 26 26 28 28 29 30 30 30 30
43 40 37 34 32 31 31 32 34 35 35 35 36 36 35 33 32 31 29 27 25 25 24 22 21 19 18 19 21 21 20 19 18 17 17 17 17 19 20 22 24 26 27
40 37 34 31 30 30 31 32 33 35 34 34 35 34 33 30 29 28 27 25 23 22 20 16 13 13 15 16 15 14 13 12 11 11 11 11 12 13 15 17 20 22 24
38 34 31 28 28 28 30 32 33 33 33 33 34 33 30 29 28 27 26 22 19 16 12 10 10 10 10 10 9 8 7 7 8 8 8 9 9 11 13 15 17 19 20
34 30 26 26 26 28 29 30 31 31 31 33 32 30 30 29 26 24 21 17 13 8 7 4 6 6 5 4 4 3 4 5 5 5 6 6 7 8 9 10 11 13 16
27 24 23 23 25 26 27 28 29 30 31 31 29 29 29 26 23 20 16 12 9 7 5 4 3 3 3 3 2 0 1 2 3 3 3 5 6 7 8 8 9 10 13
21 20 20 22 24 24 25 26 26 28 30 29 27 28 26 23 18 14 12 10 8 7 5 4 4 4 4 5 5 4 4 3 3 3 4 4 5 7 9 9 9 8 8
17 18 19 21 22 22 24 25 26 27 28 27 26 26 24 19 14 11 10 8 8 7 5 5 5 5 4 4 5 5 5 5 4 3 4 5 5 7 9 9 8 8 8
16 17 18 19 20 22 23 24 25 26 27 26 24 24 22 17 11 9 8 7 7 7 5 5 4 4 4 4 4 5 5 6 6 5 4 5 5 6 7 8 9 9 9
15 16 18 19 20 22 22 23 24 25 25 25 23 22 21 15 9 7 6 6 6 6 6 5 5 4 4 4 4 5 5 6 6 7 6 5 5 5 6 7 7 8 8
15 16 17 19 21 21 21 22 23 24 24 23 22 21 20 14 9 6 5 5 5 5 6 6 6 5 5 5 5 5 5 6 6 7 7 7 6 5 6 6 7 7 7
15 16 17 19 20 21 21 21 22 22 22 22 21 19 19 15 10 7 6 5 5 5 5 5 5 5 5 5 5 6 6 6 7 7 7 7 7 6 6 6 6 6 7
16 16 17 19 20 20 21 21 20 21 21 21 20 18 17 15 12 8 7 7 6 6 5 5 5 5 5 5 6 6 6 6 7 7 7 7 7 7 7 7 7 7 7
16 17 18 19 19 20 20 20 19 20 21 20 19 18 16 14 13 10 8 8 8 8 7 7 6 6 6 6 6 6 7 7 7 7 7 7 7 7 7 7 7 7 7
17 17 18 18 19 20 20 20 19 19 20 20 19 17 16 14 13 11 10 9 8 8 8 8 8 8 8 8 7 8 8 8 8 8 8 8 8 8 8 8 8 8 8
16 16 17 17 18 19 21 20 19 19 20 20 19 17 16 14 13 12 11 10 9 9 9 9 9 9 9 9 9 9 9 9 9 9 9 9 9 9 9 9 10 9 9
16 16 16 16 18 19 21 20 19 19 19 19 19 18 16 15 14 13 12 11 10 9 9 9 10 10 10 10 10 11 11 11 11 10 10 10 10 10 10 11 11 11 11
Wind_Direction
309 309 310 310 310 310 310 310 309 308 308 306 304 304 303 302 300 297 295 292 288 288 287 284 281 279 277 274 270 266 263 262 262 261 260 260 259 259 258 258 256 255 255
309 310 312 311 311 312 312 311 309 309 308 307 306 304 303 302 300 297 293 290 289 288 287 285 283 280 278 276 273 270 267 265 265 264 263 263 262 260 260 259 257 255 255
311 313 313 312 312 313 312 311 310 309 308 307 306 305 303 301 299 296 293 290 289 288 287 286 284 281 278 276 274 272 270 268 266 265 265 264 263 262 261 259 258 256 256
312 314 314 313 313 313 313 312 311 311 309 307 306 304 302 300 297 295 293 291 289 288 287 285 283 281 279 276 275 273 272 270 269 267 266 265 264 263 261 260 258 257 255
313 314 315 315 314 314 313 313 312 311 310 308 307 306 304 302 299 297 296 293 291 289 287 285 283 281 279 277 275 274 273 271 269 268 267 266 265 265 263 262 260 259 257
314 314 314 315 315 315 314 313 313 312 311 311 309 308 306 303 300 299 297 293 291 288 286 284 283 281 279 277 275 273 272 271 270 269 269 267 266 266 264 262 260 259 258
314 314 315 315 315 315 315 315 314 314 314 312 311 309 307 305 302 301 298 295 291 288 286 284 282 280 279 278 276 274 272 270 269 269 269 268 267 265 264 263 260 259 258
314 314 315 316 315 316 316 315 316 316 316 315 313 312 310 307 305 303 300 296 292 289 286 283 281 280 278 277 276 275 273 272 271 270 269 268 266 264 262 261 260 259 258
314 314 314 315 316 316 316 317 317 318 318 317 316 315 313 310 308 305 303 298 294 290 287 284 281 278 276 275 274 274 275 275 275 271 270 268 266 263 261 261 260 258 258
313 314 314 314 315 315 316 317 319 320 319 318 318 317 315 313 312 310 307 303 298 293 289 284 280 276 273 272 272 274 278 278 279 277 274 271 265 263 260 257 258 258 257
313 313 313 313 314 315 317 319 320 321 321 321 321 320 319 317 316 314 311 307 302 297 292 288 283 277 270 271 274 276 276 281 280 280 278 273 269 266 262 257 255 255 255
312 312 311 311 313 315 318 320 321 322 323 324 324 324 323 322 321 319 317 310 304 299 294 288 279 280 280 277 274 273 274 277 281 284 283 280 276 273 269 265 261 258 255
310 309 309 310 313 316 319 321 323 325 326 327 327 327 326 326 324 323 321 318 312 305 296 286 286 288 285 278 269 264 263 276 288 288 289 288 290 292 286 277 268 263 260
308 308 308 310 314 318 321 323 326 328 329 329 329 329 329 328 327 327 327 327 325 321 315 302 303 301 296 284 257 246 267 291 299 297 300 306 311 312 309 298 282 270 262
308 308 310 313 316 320 323 326 329 331 332 333 332 332 332 331 331 332 336 340 343 342 338 340 351 10 33 60 77 50 330 334 338 336 332 333 338 339 335 330 310 292 275
310 312 315 318 320 323 327 330 332 334 336 337 337 337 337 336 337 341 348 355 2 7 20 35 51 60 70 67 58 54 39 17 2 352 347 347 350 356 354 351 350 339 316
315 317 320 323 326 328 330 333 335 337 339 339 340 342 343 342 345 351 359 7 14 23 40 49 57 60 62 57 46 39 29 19 1 345 343 345 348 353 3 7 7 7 8
319 320 325 328 330 332 333 335 337 340 342 343 344 346 347 346 348 355 3 13 22 31 40 42 40 35 33 24 16 13 11 11 10 1 339 336 342 346 354 3 10 11 10
322 324 328 330 332 333 334 337 339 341 343 346 346 349 350 348 346 350 0 14 20 24 24 21 16 10 5 2 1 3 4 6 7 5 0 343 336 341 351 355 358 2 4
322 325 328 332 334 335 336 337 340 342 344 347 348 350 352 349 344 337 341 351 1 9 13 15 16 17 16 16 15 11 6 2 2 3 3 1 352 342 341 344 351 355 356
319 323 326 331 334 335 336 338 340 342 345 347 349 350 352 352 342 324 316 318 323 332 342 351 359 5 7 5 4 0 360 358 359 1 3 4 3 357 348 342 340 340 346
316 318 323 328 332 334 335 337 339 342 344 345 347 349 349 352 347 332 309 300 299 301 306 314 322 330 337 342 344 346 346 347 349 350 348 350 354 356 355 354 349 343 340
314 317 320 325 329 331 332 334 335 339 342 343 343 345 346 347 347 339 325 305 293 288 290 292 298 306 314 318 324 327 330 333 333 335 336 337 340 341 342 344 345 344 344
313 314 317 322 326 329 331 331 330 333 336 339 338 338 339 339 338 338 331 317 303 292 286 284 286 293 298 304 309 314 317 320 321 321 323 325 328 329 329 330 329 331 328
314 315 317 320 325 329 331 330 328 329 332 334 334 332 332 331 330 328 326 323 314 302 291 285 284 286 289 294 299 304 308 311 312 313 310 312 315 318 319 320 319 319 321
313 315 318 321 325 328 332 331 328 328 330 332 332 329 325 324 322 320 319 315 312 307 299 291 287 287 286 287 292 296 300 303 304 306 305 303 306 308 310 312 313 311 312